Regional Weather Roundup
Issued by NWS

Home | Current Version | Previous Version | Graphics & Text | Print | Product List | Glossary On
Versions: 1 2 3 4 5 6 7 8 9 10 11 12 13 14 15 16 17 18 19 20 21 22 23 24 25 26 27
000
ASUS45 KCYS 251610
RWRWY

WYOMING REGIONAL WEATHER ROUNDUP
NATIONAL WEATHER SERVICE CHEYENNE WY
1000 AM MDT FRI MAY 25 2018

NOTE:  "FAIR" INDICATES FEW OR NO CLOUDS BELOW 12,000 FEET
WITH NO SIGNIFICANT WEATHER AND/OR OBSTRUCTIONS TO VISIBILITY.

WYZ001-251700-
YELLOWSTONE NATIONAL PARK

CITY           SKY/WX    TMP DP  RH WIND       PRES   REMARKS
LK YELLOWSTONE   N/A     48  40  73 E3        30.25F
W YELLOWSTONE  NOT AVBL

$$
WYZ002>013-054>058-071-098>099-251700-
NORTHERN WYOMING

CITY           SKY/WX    TMP DP  RH WIND       PRES   REMARKS
JACKSON        CLOUDY    48  44  86 VRB3      30.21S
CODY           FAIR      69  47  45 S5        30.07S
GREYBULL       FAIR      70  52  52 SE6       30.02F
WORLAND        FAIR      68  53  58 CALM      30.03F
SHERIDAN       FAIR      75  51  43 VRB3      30.01S
BUFFALO        FAIR      70  45  40 E5        30.07F
GILLETTE       FAIR      74  49  41 NW9       30.03S
NEWCASTLE      FAIR      72  46  40 NW7       30.02S

$$
WYZ014>020-022>026-101>103-251700-
CENTRAL WYOMING

CITY           SKY/WX    TMP DP  RH WIND       PRES   REMARKS
BIG PINEY      FAIR      60  42  51 CALM      30.21S
PINEDALE       FAIR      61  37  41 CALM      30.21F
DUBOIS         FAIR      59  43  55 E3        30.19S
LANDER         FAIR      66  48  52 E5        30.09F
RIVERTON       FAIR      66  44  45 W5        30.11F
CASPER         FAIR      69  46  43 SW9       30.10F
DOUGLAS        FAIR      72  50  45 NW14      30.08F

$$
WYZ021-027>030-104>119-251700-
SOUTHERN WYOMING

CITY           SKY/WX    TMP DP  RH WIND       PRES   REMARKS
EVANSTON       FAIR      62  44  51 E7        30.17F
FORT BRIDGER   FAIR      61  43  50 NE6       30.22S
ROCK SPRINGS   FAIR      66  41  40 VRB5      30.18F
DIXON          FAIR      67  35  30 SE3       30.21S
RAWLINS        FAIR      69  40  34 VRB5      30.19F
SARATOGA       FAIR      70  36  28 E9        30.20F
LARAMIE        FAIR      67  36  31 S5        30.21F
CHEYENNE       FAIR      74  40  29 CALM      30.14F
TORRINGTON     FAIR      73  52  47 W9        30.02F
PINE BLUFFS    FAIR      73  48  40 CALM      30.09F

$$




USA.gov is the U.S. government's official web portal to all federal, state and local government web resources and services.